TimeEDT,TemperatureF,Dew PointF,Humidity,Sea Level PressureIn,VisibilityMPH,Wind Direction,Wind SpeedMPH,Gust SpeedMPH,PrecipitationIn,Events,Conditions,WindDirDegrees,DateUTC
12:15 AM,69.8,69.8,100,29.82,10.0,South,10.4,17.3,N/A,,Overcast,190,2013-06-11 04:15:00
12:35 AM,69.8,68.0,94,29.81,10.0,SSW,10.4,-,N/A,,Overcast,200,2013-06-11 04:35:00
12:55 AM,-9999,-9999,N/A,29.80,10.0,SSW,12.7,17.3,N/A,,Overcast,200,2013-06-11 04:55:00
1:15 AM,-9999,-9999,N/A,29.79,10.0,SSW,8.1,-,N/A,,Overcast,210,2013-06-11 05:15:00
1:35 AM,71.6,69.8,94,29.78,10.0,SSW,6.9,-,N/A,,Overcast,210,2013-06-11 05:35:00
1:55 AM,-9999,-9999,N/A,29.77,10.0,SSW,6.9,-,N/A,,Overcast,200,2013-06-11 05:55:00
2:15 AM,-9999,-9999,N/A,29.76,10.0,SSW,8.1,-,N/A,,Overcast,200,2013-06-11 06:15:00
2:35 AM,-9999,-9999,N/A,29.76,9.0,SW,8.1,-,N/A,,Overcast,220,2013-06-11 06:35:00
2:55 AM,-9999,-9999,N/A,29.76,10.0,SW,10.4,16.1,N/A,,Mostly Cloudy,230,2013-06-11 06:55:00
3:15 AM,69.8,69.8,100,29.77,10.0,WSW,9.2,-,N/A,,Mostly Cloudy,240,2013-06-11 07:15:00
3:35 AM,69.8,69.8,100,29.77,10.0,SW,8.1,-,N/A,,Overcast,230,2013-06-11 07:35:00
3:55 AM,69.8,69.8,100,29.77,10.0,WSW,10.4,18.4,N/A,,Overcast,240,2013-06-11 07:55:00
4:15 AM,69.8,68.0,94,29.77,10.0,WSW,10.4,18.4,N/A,,Overcast,240,2013-06-11 08:15:00
4:35 AM,69.8,68.0,94,29.77,10.0,SW,8.1,-,N/A,,Mostly Cloudy,230,2013-06-11 08:35:00
4:55 AM,69.8,66.2,88,29.77,10.0,WSW,8.1,-,N/A,,Overcast,240,2013-06-11 08:55:00
5:15 AM,69.8,66.2,88,29.77,10.0,WSW,6.9,-,N/A,,Overcast,250,2013-06-11 09:15:00
5:35 AM,68.0,66.2,94,29.77,10.0,WSW,5.8,-,N/A,,Overcast,250,2013-06-11 09:35:00
5:55 AM,68.0,66.2,94,29.77,10.0,SW,5.8,-,N/A,,Overcast,230,2013-06-11 09:55:00
6:15 AM,68.0,66.2,94,29.77,10.0,WSW,6.9,-,N/A,,Overcast,240,2013-06-11 10:15:00
6:35 AM,68.0,66.2,94,29.78,10.0,SW,8.1,-,N/A,,Overcast,230,2013-06-11 10:35:00
6:55 AM,68.0,66.2,94,29.78,10.0,WSW,8.1,-,N/A,,Overcast,240,2013-06-11 10:55:00
7:15 AM,69.8,66.2,88,29.78,10.0,WSW,6.9,-,N/A,,Overcast,240,2013-06-11 11:15:00
7:35 AM,69.8,66.2,88,29.78,10.0,WSW,6.9,-,N/A,,Overcast,250,2013-06-11 11:35:00
7:55 AM,69.8,66.2,88,29.78,10.0,WSW,9.2,-,N/A,,Overcast,240,2013-06-11 11:55:00
8:15 AM,69.8,66.2,88,29.78,10.0,WSW,8.1,-,N/A,,Overcast,240,2013-06-11 12:15:00
8:35 AM,71.6,68.0,88,29.78,10.0,WSW,11.5,-,N/A,,Overcast,240,2013-06-11 12:35:00
8:55 AM,71.6,68.0,88,29.78,10.0,West,12.7,17.3,N/A,,Overcast,260,2013-06-11 12:55:00
9:15 AM,73.4,66.2,78,29.77,10.0,West,9.2,-,N/A,,Overcast,260,2013-06-11 13:15:00
9:35 AM,73.4,66.2,78,29.77,10.0,WSW,10.4,17.3,N/A,,Overcast,250,2013-06-11 13:35:00
9:55 AM,75.2,66.2,73,29.76,10.0,West,9.2,18.4,N/A,,Overcast,260,2013-06-11 13:55:00
10:15 AM,75.2,66.2,73,29.76,10.0,West,10.4,17.3,N/A,,Mostly Cloudy,260,2013-06-11 14:15:00
10:35 AM,77.0,66.2,69,29.76,10.0,WSW,10.4,-,N/A,,Mostly Cloudy,250,2013-06-11 14:35:00
10:55 AM,77.0,66.2,69,29.75,10.0,WSW,11.5,-,N/A,,Mostly Cloudy,250,2013-06-11 14:55:00
11:15 AM,77.0,66.2,69,29.75,10.0,West,10.4,17.3,N/A,,Mostly Cloudy,260,2013-06-11 15:15:00
11:35 AM,78.8,66.2,65,29.74,10.0,West,10.4,-,N/A,,Scattered Clouds,260,2013-06-11 15:35:00
11:55 AM,78.8,66.2,65,29.74,10.0,WSW,13.8,20.7,N/A,,Scattered Clouds,250,2013-06-11 15:55:00
12:15 PM,78.8,66.2,65,29.74,10.0,WSW,16.1,19.6,N/A,,Scattered Clouds,240,2013-06-11 16:15:00
12:35 PM,80.6,66.2,61,29.73,10.0,WSW,11.5,18.4,N/A,,Mostly Cloudy,250,2013-06-11 16:35:00
12:55 PM,80.6,64.4,58,29.73,10.0,WSW,12.7,18.4,N/A,,Mostly Cloudy,250,2013-06-11 16:55:00
1:15 PM,80.6,64.4,58,29.72,10.0,WSW,15.0,-,N/A,,Overcast,240,2013-06-11 17:15:00
1:35 PM,80.6,64.4,58,29.71,10.0,SW,12.7,21.9,N/A,,Mostly Cloudy,230,2013-06-11 17:35:00
1:55 PM,80.6,64.4,58,29.71,10.0,West,15.0,21.9,N/A,,Scattered Clouds,270,2013-06-11 17:55:00
2:15 PM,80.6,64.4,58,29.70,10.0,WSW,12.7,17.3,N/A,,Mostly Cloudy,250,2013-06-11 18:15:00
2:35 PM,82.4,64.4,54,29.70,10.0,WSW,16.1,21.9,N/A,,Scattered Clouds,250,2013-06-11 18:35:00
2:55 PM,80.6,64.4,58,29.69,10.0,West,12.7,21.9,N/A,,Mostly Cloudy,260,2013-06-11 18:55:00
3:15 PM,78.8,64.4,61,29.69,10.0,West,12.7,17.3,N/A,,Overcast,260,2013-06-11 19:15:00
3:35 PM,75.2,66.2,73,29.70,10.0,West,15.0,20.7,N/A,,Overcast,260,2013-06-11 19:35:00
3:55 PM,77.0,66.2,69,29.69,10.0,WSW,10.4,-,N/A,,Mostly Cloudy,250,2013-06-11 19:55:00
4:15 PM,78.8,66.2,65,29.68,10.0,WSW,12.7,17.3,N/A,,Mostly Cloudy,250,2013-06-11 20:15:00
4:35 PM,78.8,66.2,65,29.68,10.0,West,10.4,19.6,N/A,,Mostly Cloudy,280,2013-06-11 20:35:00
4:55 PM,80.6,66.2,61,29.67,10.0,West,9.2,-,N/A,,Partly Cloudy,260,2013-06-11 20:55:00
5:15 PM,-9999,-9999,N/A,29.67,10.0,WSW,16.1,20.7,N/A,,Scattered Clouds,250,2013-06-11 21:15:00
5:35 PM,78.8,66.2,65,29.67,10.0,WSW,10.4,-,N/A,,Mostly Cloudy,250,2013-06-11 21:35:00
5:55 PM,80.6,66.2,61,29.67,10.0,West,10.4,-,N/A,,Mostly Cloudy,260,2013-06-11 21:55:00
6:15 PM,80.6,66.2,61,29.67,10.0,West,11.5,17.3,N/A,,Mostly Cloudy,270,2013-06-11 22:15:00
6:35 PM,-9999,-9999,N/A,29.66,10.0,West,11.5,18.4,N/A,,Overcast,270,2013-06-11 22:35:00
6:55 PM,78.8,66.2,65,29.67,10.0,West,10.4,-,N/A,,Mostly Cloudy,260,2013-06-11 22:55:00
7:15 PM,78.8,64.4,61,29.67,10.0,West,15.0,19.6,N/A,,Mostly Cloudy,280,2013-06-11 23:15:00
7:35 PM,78.8,64.4,61,29.68,10.0,West,12.7,21.9,N/A,,Mostly Cloudy,280,2013-06-11 23:35:00
7:55 PM,78.8,62.6,57,29.68,10.0,West,15.0,26.5,N/A,,Mostly Cloudy,270,2013-06-11 23:55:00
8:15 PM,77.0,62.6,61,29.69,10.0,West,12.7,21.9,N/A,,Partly Cloudy,280,2013-06-12 00:15:00
8:35 PM,75.2,62.6,65,29.69,10.0,West,11.5,-,N/A,,Clear,280,2013-06-12 00:35:00
8:55 PM,75.2,62.6,65,29.70,10.0,West,11.5,-,N/A,,Scattered Clouds,270,2013-06-12 00:55:00
9:15 PM,75.2,62.6,65,29.71,10.0,West,11.5,-,N/A,,Clear,280,2013-06-12 01:15:00
9:35 PM,73.4,62.6,69,29.71,10.0,West,10.4,16.1,N/A,,Clear,280,2013-06-12 01:35:00
9:55 PM,73.4,62.6,69,29.73,10.0,WNW,12.7,16.1,N/A,,Clear,290,2013-06-12 01:55:00
10:15 PM,73.4,60.8,65,29.74,10.0,West,12.7,19.6,N/A,,Clear,280,2013-06-12 02:15:00
10:35 PM,73.4,60.8,65,29.74,10.0,West,9.2,-,N/A,,Clear,280,2013-06-12 02:35:00
10:55 PM,73.4,60.8,65,29.74,10.0,WNW,9.2,-,N/A,,Clear,290,2013-06-12 02:55:00
11:15 PM,71.6,60.8,69,29.75,10.0,West,8.1,-,N/A,,Clear,280,2013-06-12 03:15:00
11:35 PM,71.6,60.8,69,29.75,10.0,West,8.1,-,N/A,,Clear,280,2013-06-12 03:35:00
11:55 PM,71.6,60.8,69,29.76,10.0,West,9.2,16.1,N/A,,Clear,280,2013-06-12 03:55:00